Regional Weather Roundup
Issued by NWS

Home | Current Version | Previous Version | Text Only | Print | Product List | Glossary Off
Versions: 1 2 3 4 5 6 7 8 9 10 11 12 13 14 15 16 17 18 19 20 21 22 23 24 25 26 27 28 29 30 31 32 33 34 35 36 37 38 39 40 41 42 43 44 45 46 47 48 49 50

000
ASUS45 KSLC 280710
RWRUT

UTAH REGIONAL WEATHER ROUNDUP
NATIONAL WEATHER SERVICE SALT LAKE CITY UT
100 AM MDT THU AUG 28 2014

UTZ001>011-023>025-280800-

NORTHERN UTAH

CITY           SKY/WX    TMP DP  RH WIND       PRES   REMARKS
HILL AFB       NOT AVBL
LOGAN          CLEAR     57  53  86 E3        30.21S
OGDEN          CLEAR     62  49  62 S9        30.21S
PROVO AIRPORT  CLEAR     57  50  77 E3        30.26S
SALT LAKE CITY PTCLDY    63  51  65 SE8       30.20F
VERNAL         CLOUDY    57  51  80 S3        30.26F
WENDOVER       CLEAR     66  46  48 NE3       30.18F
HEBER CITY     PTCLDY    46  46 100 CALM      30.32S
WEST JORDAN    CLEAR     63  55  77 S9        30.24S

$$

UTZ012>022-026-027-280800-

SOUTHERN UTAH

CITY           SKY/WX    TMP DP  RH WIND       PRES   REMARKS
BRYCE CANYON   CLEAR     44  40  85 S5        30.41S
CEDAR CITY     CLEAR     54  44  69 CALM      30.29R
MILFORD        CLEAR     60  48  64 CALM      30.25S
MOAB/CYNLANDS  CLEAR     65  49  56 CALM      30.21S
PRICE          MOCLDY    56  45  66 N5        30.29S
ST GEORGE      MOSUNNY   75  48  38 CALM      30.12R

$$

REGIONAL REPORTS     COLORADO/ARIZONA

CITY           SKY/WX    TMP DP  RH WIND       PRES   REMARKS
CRAIG, CO      CLOUDY    53  50  89 W7        30.29R
GRAND JUNCTION CLOUDY    58  56  93 CALM      30.24F
RIFLE          CLOUDY    55  52  89 NE3       30.26F
MONTROSE       CLOUDY    54  48  80 SE3       30.30F
CORTEZ         CLEAR     47  46  97 NE3       30.30S
PAGE, AZ       CLEAR     70  51  51 NW5       30.19R
GRAND CANYON     N/A    N/A N/A N/A MISG        N/A
KINGMAN        CLEAR     68  41  37 CALM      30.13S
FLAGSTAFF      PTCLDY    53  50  89 CALM      30.38F

$$

REGIONAL REPORTS    NEVADA/IDAHO/WYOMING

CITY           SKY/WX    TMP DP  RH WIND       PRES   REMARKS
LAS VEGAS, NV  CLEAR     85  34  16 SW8       29.98S
ELY            CLEAR     48  42  80 S12       30.33R
ELKO           CLEAR     54  38  54 N3        30.22S
POCATELLO, ID  CLEAR     57  49  74 CALM      30.18S
BURLEY         CLEAR     61  51  70 S10       30.14S
EVANSTON, WY   CLEAR     47  45  93 S9        30.35S
ROCK SPRINGS   CLOUDY    49  46  90 SW10      30.29F

$$


USA.gov is the U.S. government's official web portal to all federal, state and local government web resources and services.